DAL229 CYUL-KMIA

Flight info

Callsign DAL229
Flight time N/A
Altitude 36000
Route FAWNS BUGSY PONCT Q437 CRPLR BGBRD Q101 PRANK/N0469F360 Q101 SKARP Y313 HOAGG BNFSH3
Aircraft B739/M-SDE2E3FGHIRWXY/LB1

Departure

Time N/A
Airport Montreal / Pierre Elliott Trudeau International Airport (CYUL)

Arrival

Time 2026-05-08 02:40
Airport Miami International Airport (KMIA)
Time Latitude Longitude Altitude Speed Heading
2026-05-08 00:09 40.99245 -74.07871 35842 ft 405 kts 211°
2026-05-08 00:10 40.93980 -74.10540 35841 ft 405 kts 211°
2026-05-08 00:10 40.89607 -74.12754 35838 ft 404 kts 211°
2026-05-08 00:11 40.84388 -74.15433 35839 ft 400 kts 215°
2026-05-08 00:11 40.81225 -74.17787 35846 ft 389 kts 222°
2026-05-08 00:11 40.79064 -74.19897 35853 ft 383 kts 228°
2026-05-08 00:12 40.75893 -74.23933 35856 ft 380 kts 231°
2026-05-08 00:12 40.72102 -74.28857 35860 ft 382 kts 231°
2026-05-08 00:13 40.68292 -74.33778 35857 ft 384 kts 231°
2026-05-08 00:13 40.64462 -74.38699 35862 ft 385 kts 231°
2026-05-08 00:14 40.60638 -74.43601 35845 ft 386 kts 231°
2026-05-08 00:14 40.56788 -74.48529 35845 ft 387 kts 231°
2026-05-08 00:15 40.52921 -74.53469 35848 ft 387 kts 231°
2026-05-08 00:15 40.49059 -74.58398 35848 ft 387 kts 231°
2026-05-08 00:16 40.45154 -74.63231 35842 ft 392 kts 225°
2026-05-08 00:16 40.40362 -74.66905 35841 ft 405 kts 214°
2026-05-08 00:17 40.37565 -74.68314 35833 ft 413 kts 206°
2026-05-08 00:17 40.31913 -74.69916 35837 ft 416 kts 202°
2026-05-08 00:18 40.26267 -74.71380 35840 ft 415 kts 203°
2026-05-08 00:18 40.20606 -74.72875 35843 ft 415 kts 203°
2026-05-08 00:19 40.14943 -74.74396 35839 ft 415 kts 203°
2026-05-08 00:19 40.09272 -74.75926 35861 ft 416 kts 203°
2026-05-08 00:20 40.03584 -74.77458 35860 ft 418 kts 203°
2026-05-08 00:20 39.97908 -74.78983 35861 ft 419 kts 203°
2026-05-08 00:21 39.92181 -74.80519 35858 ft 421 kts 203°
2026-05-08 00:21 39.86431 -74.82057 35853 ft 421 kts 203°
2026-05-08 00:22 39.80679 -74.83593 35852 ft 422 kts 203°
2026-05-08 00:22 39.74956 -74.85119 35849 ft 422 kts 203°
2026-05-08 00:23 39.69197 -74.86653 35852 ft 421 kts 203°
2026-05-08 00:23 39.63439 -74.88185 35862 ft 421 kts 203°
2026-05-08 00:24 39.57837 -74.89847 35852 ft 412 kts 210°
2026-05-08 00:24 39.54974 -74.91333 35866 ft 402 kts 216°
2026-05-08 00:25 39.50267 -74.95009 35864 ft 395 kts 221°
2026-05-08 00:25 39.45592 -74.98778 35869 ft 396 kts 221°
2026-05-08 00:26 39.40891 -75.02528 35865 ft 397 kts 221°
2026-05-08 00:26 39.36202 -75.06256 35865 ft 398 kts 221°
2026-05-08 00:27 39.31485 -75.10003 35864 ft 398 kts 221°
2026-05-08 00:27 39.27239 -75.14381 35872 ft 387 kts 230°
2026-05-08 00:28 39.23255 -75.19096 35865 ft 389 kts 230°
2026-05-08 00:28 39.19248 -75.23792 35872 ft 390 kts 230°
2026-05-08 00:29 39.15223 -75.28489 35868 ft 390 kts 230°
2026-05-08 00:29 39.11193 -75.33184 35870 ft 391 kts 230°
2026-05-08 00:30 39.07179 -75.37854 35868 ft 391 kts 230°
2026-05-08 00:30 39.02771 -75.42089 35875 ft 406 kts 217°
2026-05-08 00:31 38.97397 -75.44724 35857 ft 423 kts 202°
2026-05-08 00:31 38.92486 -75.45533 35866 ft 430 kts 197°
2026-05-08 00:32 38.88248 -75.46054 35885 ft 429 kts 197°
2026-05-08 00:32 38.82355 -75.46821 35888 ft 428 kts 198°
2026-05-08 00:33 38.76433 -75.47647 35891 ft 427 kts 198°
2026-05-08 00:33 38.70513 -75.48474 35894 ft 428 kts 198°
2026-05-08 00:34 38.64615 -75.49272 35895 ft 429 kts 198°
2026-05-08 00:34 38.58662 -75.50072 35899 ft 430 kts 198°
2026-05-08 00:35 38.52695 -75.50875 35914 ft 431 kts 198°
2026-05-08 00:35 38.46753 -75.51675 35909 ft 432 kts 198°
2026-05-08 00:36 38.40762 -75.52479 35909 ft 432 kts 198°
2026-05-08 00:36 38.34957 -75.53840 35918 ft 411 kts 211°
2026-05-08 00:37 38.29888 -75.56822 35904 ft 391 kts 224°
2026-05-08 00:38 38.23216 -75.62680 35915 ft 389 kts 225°
2026-05-08 00:38 38.18745 -75.66595 35914 ft 390 kts 225°
2026-05-08 00:39 38.14272 -75.70490 35914 ft 390 kts 225°
2026-05-08 00:39 38.11851 -75.72591 35917 ft 390 kts 225°
2026-05-08 00:40 38.07379 -75.76468 35918 ft 389 kts 225°
2026-05-08 00:40 38.02912 -75.80334 35916 ft 388 kts 225°
2026-05-08 00:41 37.98446 -75.84194 35911 ft 388 kts 225°
2026-05-08 00:41 37.93992 -75.88038 35911 ft 387 kts 225°
2026-05-08 00:42 37.89549 -75.91867 35911 ft 386 kts 225°
2026-05-08 00:42 37.85118 -75.95681 35912 ft 385 kts 226°
2026-05-08 00:43 37.80687 -75.99488 35914 ft 384 kts 226°
2026-05-08 00:43 37.76274 -76.03275 35911 ft 383 kts 226°
2026-05-08 00:44 37.71887 -76.07035 35912 ft 382 kts 226°
2026-05-08 00:44 37.67475 -76.10812 35912 ft 382 kts 226°
2026-05-08 00:45 37.63022 -76.14504 35912 ft 389 kts 221°
2026-05-08 00:45 37.57926 -76.17160 35910 ft 407 kts 211°
2026-05-08 00:46 37.52250 -76.18565 35915 ft 416 kts 205°
2026-05-08 00:46 37.46561 -76.19786 35921 ft 415 kts 205°
2026-05-08 00:47 37.43465 -76.20456 35919 ft 414 kts 205°
2026-05-08 00:47 37.37788 -76.21702 35914 ft 414 kts 206°
2026-05-08 00:48 37.32109 -76.22961 35918 ft 414 kts 206°
2026-05-08 00:48 37.26428 -76.24223 35915 ft 415 kts 206°
2026-05-08 00:49 37.20737 -76.25485 35913 ft 416 kts 206°
2026-05-08 00:49 37.15014 -76.26751 35911 ft 417 kts 206°
2026-05-08 00:50 37.09322 -76.28008 35902 ft 418 kts 206°
2026-05-08 00:50 37.03577 -76.29273 35911 ft 419 kts 206°
2026-05-08 00:51 36.97819 -76.30539 35916 ft 420 kts 206°
2026-05-08 00:51 36.92064 -76.31803 35913 ft 420 kts 206°
2026-05-08 00:52 36.86296 -76.33068 35913 ft 420 kts 206°
2026-05-08 00:52 36.80572 -76.34321 35918 ft 420 kts 206°
2026-05-08 00:53 36.74824 -76.35578 35917 ft 420 kts 206°
2026-05-08 00:53 36.69069 -76.36835 35926 ft 419 kts 206°
2026-05-08 00:54 36.63311 -76.38090 35926 ft 419 kts 206°
2026-05-08 00:54 36.60179 -76.38772 35926 ft 419 kts 206°
2026-05-08 00:55 36.54436 -76.40022 35925 ft 419 kts 206°
2026-05-08 00:55 36.48687 -76.41271 35919 ft 419 kts 206°
2026-05-08 00:56 36.42977 -76.42509 35923 ft 419 kts 206°
2026-05-08 00:56 36.37227 -76.43755 35910 ft 419 kts 206°
2026-05-08 00:57 36.31475 -76.44998 35907 ft 419 kts 206°
2026-05-08 00:57 36.25729 -76.46239 35909 ft 419 kts 206°
2026-05-08 00:58 36.19979 -76.47479 35928 ft 419 kts 205°
2026-05-08 00:58 36.14259 -76.48711 35933 ft 419 kts 205°
2026-05-08 00:59 36.08499 -76.49949 35938 ft 420 kts 205°
2026-05-08 00:59 36.03703 -76.50979 35937 ft 420 kts 205°
2026-05-08 01:00 35.97000 -76.52416 35935 ft 420 kts 205°
2026-05-08 01:00 35.92163 -76.53455 35929 ft 419 kts 206°
2026-05-08 01:00 35.89420 -76.54313 35931 ft 405 kts 213°
2026-05-08 01:01 35.86857 -76.55595 35929 ft 389 kts 220°
2026-05-08 01:01 35.82021 -76.58638 35918 ft 390 kts 220°
2026-05-08 01:02 35.78647 -76.60740 35915 ft 392 kts 220°
2026-05-08 01:02 35.74594 -76.63246 35915 ft 393 kts 220°
2026-05-08 01:03 35.69690 -76.66264 35909 ft 394 kts 220°
2026-05-08 01:03 35.64772 -76.69283 35912 ft 395 kts 220°
2026-05-08 01:04 35.59847 -76.72302 35909 ft 395 kts 220°
2026-05-08 01:04 35.54922 -76.75317 35914 ft 396 kts 220°
2026-05-08 01:05 35.50021 -76.78313 35917 ft 396 kts 219°
2026-05-08 01:05 35.45082 -76.81330 35912 ft 396 kts 219°
2026-05-08 01:06 35.40137 -76.84345 35910 ft 397 kts 219°
2026-05-08 01:06 35.35186 -76.87361 35912 ft 398 kts 219°
2026-05-08 01:07 35.30219 -76.90383 35900 ft 398 kts 219°
2026-05-08 01:07 35.25268 -76.93390 35907 ft 399 kts 219°
2026-05-08 01:08 35.20318 -76.96440 35916 ft 398 kts 220°
2026-05-08 01:08 35.15385 -76.99541 35925 ft 399 kts 220°
2026-05-08 01:09 35.10443 -77.02645 35927 ft 399 kts 220°
2026-05-08 01:09 35.07794 -77.04304 35927 ft 400 kts 220°
2026-05-08 01:10 35.02840 -77.07399 35917 ft 400 kts 220°
2026-05-08 01:10 34.97877 -77.10494 35920 ft 400 kts 220°
2026-05-08 01:11 34.92909 -77.13588 35909 ft 400 kts 220°
2026-05-08 01:11 34.87961 -77.16665 35901 ft 401 kts 220°
2026-05-08 01:12 34.82977 -77.19760 35881 ft 401 kts 220°
2026-05-08 01:12 34.78036 -77.22825 35882 ft 401 kts 220°
2026-05-08 01:13 34.73060 -77.25907 35896 ft 402 kts 220°
2026-05-08 01:13 34.68073 -77.28992 35904 ft 402 kts 220°
2026-05-08 01:14 34.63079 -77.32077 35901 ft 402 kts 219°
2026-05-08 01:14 34.58085 -77.35158 35896 ft 402 kts 219°
2026-05-08 01:15 34.53092 -77.38235 35891 ft 402 kts 219°
2026-05-08 01:15 34.47927 -77.40974 35885 ft 418 kts 211°
2026-05-08 01:15 34.45048 -77.41798 35880 ft 432 kts 203°
2026-05-08 01:16 34.42072 -77.42374 35877 ft 433 kts 203°
2026-05-08 01:16 34.36102 -77.43489 35860 ft 433 kts 203°
2026-05-08 01:17 34.32991 -77.44077 35859 ft 433 kts 203°
2026-05-08 01:17 34.27043 -77.45223 35859 ft 432 kts 203°
2026-05-08 01:18 34.21103 -77.46382 35857 ft 432 kts 203°
2026-05-08 01:18 34.15202 -77.47536 35857 ft 432 kts 203°
2026-05-08 01:19 34.09262 -77.48694 35859 ft 432 kts 203°
2026-05-08 01:19 34.03323 -77.49850 35864 ft 432 kts 203°
2026-05-08 01:20 33.97378 -77.51006 35865 ft 433 kts 203°
2026-05-08 01:20 33.91429 -77.52161 35866 ft 433 kts 203°
2026-05-08 01:21 33.85472 -77.53315 35869 ft 433 kts 203°
2026-05-08 01:21 33.80386 -77.54300 35869 ft 434 kts 203°
2026-05-08 01:22 33.74414 -77.55455 35870 ft 435 kts 203°
2026-05-08 01:22 33.68426 -77.56610 35872 ft 435 kts 202°
2026-05-08 01:23 33.62437 -77.57765 35874 ft 436 kts 202°
2026-05-08 01:23 33.56541 -77.59069 35867 ft 424 kts 209°
2026-05-08 01:24 33.50890 -77.61061 35863 ft 423 kts 210°
2026-05-08 01:24 33.48064 -77.62074 35868 ft 423 kts 210°
2026-05-08 01:25 33.42410 -77.64085 35876 ft 424 kts 209°
2026-05-08 01:25 33.36743 -77.66076 35877 ft 425 kts 209°
2026-05-08 01:26 33.31060 -77.68060 35885 ft 425 kts 209°
2026-05-08 01:26 33.25367 -77.70043 35887 ft 426 kts 209°
2026-05-08 01:27 33.19673 -77.72024 35887 ft 426 kts 209°
2026-05-08 01:27 33.13976 -77.74004 35888 ft 426 kts 208°
2026-05-08 01:28 33.08310 -77.75971 35891 ft 427 kts 208°
2026-05-08 01:28 33.02601 -77.77950 35888 ft 427 kts 208°
2026-05-08 01:29 32.96890 -77.79927 35892 ft 427 kts 208°
2026-05-08 01:29 32.91186 -77.81899 35893 ft 427 kts 208°
2026-05-08 01:30 32.85476 -77.83871 35895 ft 427 kts 208°
2026-05-08 01:30 32.79765 -77.85840 35901 ft 427 kts 208°
2026-05-08 01:31 32.74094 -77.87794 35907 ft 427 kts 208°
2026-05-08 01:31 32.68380 -77.89759 35910 ft 427 kts 208°
2026-05-08 01:32 32.65445 -77.90758 35913 ft 428 kts 207°
2026-05-08 01:32 32.59676 -77.92638 35913 ft 429 kts 206°
2026-05-08 01:33 32.53948 -77.94476 35914 ft 429 kts 206°
2026-05-08 01:33 32.48177 -77.96335 35918 ft 429 kts 206°
2026-05-08 01:34 32.42411 -77.98197 35920 ft 429 kts 206°
2026-05-08 01:34 32.36650 -78.00057 35921 ft 429 kts 206°
2026-05-08 01:35 32.30910 -78.01909 35927 ft 430 kts 206°
2026-05-08 01:35 32.25139 -78.03768 35930 ft 430 kts 206°
2026-05-08 01:36 32.19360 -78.05627 35933 ft 430 kts 206°
2026-05-08 01:36 32.13576 -78.07485 35935 ft 431 kts 206°
2026-05-08 01:37 32.07793 -78.09340 35938 ft 431 kts 206°
2026-05-08 01:37 32.01985 -78.11201 35942 ft 432 kts 206°
2026-05-08 01:38 31.96187 -78.13056 35941 ft 432 kts 206°
2026-05-08 01:38 31.90412 -78.14902 35946 ft 433 kts 205°
2026-05-08 01:39 31.84584 -78.16762 35950 ft 433 kts 205°
2026-05-08 01:39 31.81576 -78.17721 35952 ft 434 kts 205°
2026-05-08 01:40 31.75745 -78.19578 35957 ft 434 kts 205°
2026-05-08 01:40 31.69896 -78.21439 35953 ft 435 kts 205°
2026-05-08 01:41 31.64049 -78.23296 35957 ft 436 kts 205°
2026-05-08 01:41 31.58194 -78.25154 35958 ft 436 kts 205°
2026-05-08 01:42 31.52357 -78.27004 35957 ft 437 kts 205°
2026-05-08 01:42 31.46473 -78.28868 35957 ft 437 kts 205°
2026-05-08 01:43 31.40609 -78.30808 35963 ft 437 kts 205°
2026-05-08 01:43 31.34752 -78.32788 35972 ft 439 kts 205°
2026-05-08 01:44 31.28904 -78.34756 35970 ft 440 kts 205°
2026-05-08 01:44 31.23003 -78.36731 35967 ft 441 kts 205°
2026-05-08 01:45 31.17085 -78.38705 35972 ft 442 kts 205°
2026-05-08 01:45 31.12153 -78.40348 35972 ft 443 kts 204°
2026-05-08 01:46 31.06216 -78.42323 35972 ft 444 kts 204°
2026-05-08 01:46 30.99301 -78.44621 35972 ft 444 kts 204°
2026-05-08 01:47 30.97048 -78.45369 35972 ft 444 kts 204°
2026-05-08 01:47 30.91090 -78.47345 35971 ft 445 kts 204°
2026-05-08 01:48 30.82149 -78.50306 35977 ft 445 kts 204°
2026-05-08 01:48 30.76208 -78.52271 35975 ft 446 kts 204°
2026-05-08 01:49 30.70238 -78.54242 35976 ft 446 kts 204°
2026-05-08 01:49 30.64245 -78.56219 35975 ft 446 kts 204°
2026-05-08 01:50 30.58255 -78.58191 35976 ft 447 kts 204°
2026-05-08 01:50 30.52271 -78.60160 35979 ft 447 kts 204°
2026-05-08 01:51 30.46313 -78.62118 35979 ft 448 kts 204°
2026-05-08 01:51 30.40312 -78.64087 35979 ft 448 kts 204°
2026-05-08 01:52 30.34300 -78.66057 35981 ft 448 kts 204°
2026-05-08 01:52 30.28279 -78.68028 35985 ft 449 kts 204°
2026-05-08 01:53 30.22264 -78.69995 35980 ft 449 kts 204°
2026-05-08 01:53 30.16286 -78.71947 35983 ft 449 kts 204°
2026-05-08 01:54 30.12252 -78.73266 35986 ft 449 kts 204°
2026-05-08 01:54 30.07196 -78.74919 35984 ft 450 kts 204°
2026-05-08 01:55 30.01180 -78.76884 35983 ft 450 kts 204°
2026-05-08 01:55 29.95152 -78.78849 35984 ft 450 kts 204°
2026-05-08 01:56 29.89119 -78.80814 35980 ft 450 kts 204°
2026-05-08 01:56 29.83082 -78.82778 35988 ft 450 kts 204°
2026-05-08 01:57 29.76989 -78.84577 35982 ft 459 kts 197°
2026-05-08 01:57 29.70651 -78.85455 35987 ft 462 kts 194°
2026-05-08 01:58 29.64242 -78.86249 35991 ft 462 kts 194°
2026-05-08 01:58 29.57886 -78.87068 35988 ft 462 kts 195°
2026-05-08 01:59 29.51487 -78.87920 35990 ft 462 kts 195°
2026-05-08 01:59 29.45089 -78.88781 35995 ft 463 kts 195°
2026-05-08 02:00 29.38703 -78.89640 35997 ft 463 kts 194°
2026-05-08 02:00 29.32291 -78.90499 35996 ft 463 kts 194°
2026-05-08 02:01 29.25882 -78.91357 35995 ft 463 kts 194°
2026-05-08 02:01 29.21637 -78.91924 35997 ft 463 kts 194°
2026-05-08 02:02 29.15813 -78.92702 35996 ft 463 kts 194°
2026-05-08 02:02 29.09400 -78.93557 35998 ft 464 kts 194°
2026-05-08 02:03 29.02978 -78.94412 36001 ft 464 kts 194°
2026-05-08 02:03 28.96598 -78.95261 35997 ft 464 kts 194°
2026-05-08 02:04 28.90177 -78.96114 36003 ft 464 kts 194°
2026-05-08 02:04 28.83747 -78.96967 36016 ft 465 kts 194°
2026-05-08 02:05 28.77353 -78.97815 36010 ft 465 kts 193°
2026-05-08 02:05 28.70917 -78.98667 36010 ft 465 kts 193°
2026-05-08 02:06 28.64478 -78.99518 36010 ft 466 kts 193°
2026-05-08 02:06 28.58042 -79.00368 36014 ft 466 kts 193°
2026-05-08 02:07 28.51601 -79.01217 36014 ft 466 kts 193°
2026-05-08 02:07 28.45159 -79.02066 36018 ft 466 kts 193°
2026-05-08 02:08 28.38693 -79.02917 36016 ft 466 kts 193°
2026-05-08 02:08 28.32362 -79.04085 36012 ft 457 kts 204°
2026-05-08 02:09 28.28323 -79.05572 36018 ft 455 kts 205°
2026-05-08 02:09 28.23044 -79.07615 36025 ft 455 kts 205°
2026-05-08 02:10 28.17037 -79.09916 36023 ft 456 kts 205°
2026-05-08 02:10 28.11002 -79.12181 36018 ft 456 kts 204°
2026-05-08 02:11 28.04995 -79.14416 36027 ft 457 kts 204°
2026-05-08 02:11 27.98945 -79.16661 36018 ft 457 kts 204°
2026-05-08 02:12 27.92884 -79.18909 36026 ft 458 kts 204°
2026-05-08 02:12 27.86858 -79.21143 36015 ft 458 kts 204°
2026-05-08 02:13 27.83810 -79.22273 35757 ft 462 kts 204°
2026-05-08 02:13 27.80754 -79.23404 35516 ft 460 kts 204°
2026-05-08 02:13 27.77711 -79.24529 35278 ft 460 kts 204°
2026-05-08 02:13 27.74664 -79.25655 35053 ft 461 kts 204°
2026-05-08 02:14 27.71610 -79.26783 34825 ft 462 kts 204°
2026-05-08 02:14 27.68586 -79.27901 34592 ft 463 kts 204°
2026-05-08 02:14 27.65516 -79.29034 34373 ft 464 kts 204°
2026-05-08 02:14 27.62439 -79.30169 34148 ft 465 kts 204°
2026-05-08 02:15 27.59360 -79.31304 33904 ft 465 kts 204°
2026-05-08 02:15 27.56280 -79.32438 33653 ft 466 kts 204°
2026-05-08 02:15 27.53194 -79.33575 33392 ft 467 kts 204°
2026-05-08 02:15 27.50108 -79.34710 33145 ft 467 kts 204°
2026-05-08 02:16 27.47016 -79.35847 32891 ft 467 kts 204°
2026-05-08 02:16 27.43956 -79.36972 32650 ft 468 kts 203°
2026-05-08 02:16 27.40816 -79.38125 32398 ft 468 kts 203°
2026-05-08 02:16 27.39814 -79.38493 32317 ft 468 kts 203°
2026-05-08 02:17 27.37588 -79.39310 32139 ft 468 kts 203°
2026-05-08 02:17 27.34486 -79.40449 31900 ft 469 kts 203°
2026-05-08 02:17 27.31374 -79.41590 31661 ft 469 kts 203°
2026-05-08 02:17 27.28271 -79.42727 31429 ft 469 kts 203°
2026-05-08 02:18 27.25199 -79.43851 31192 ft 470 kts 203°
2026-05-08 02:18 27.22092 -79.44988 30961 ft 471 kts 203°
2026-05-08 02:18 27.18973 -79.46129 30728 ft 471 kts 203°
2026-05-08 02:18 27.15855 -79.47269 30493 ft 472 kts 203°
2026-05-08 02:19 27.12727 -79.48412 30271 ft 473 kts 203°
2026-05-08 02:19 27.09591 -79.49557 30032 ft 474 kts 203°
2026-05-08 02:19 27.06443 -79.50706 29758 ft 474 kts 203°
2026-05-08 02:19 27.03303 -79.51851 28860 ft 477 kts 203°
2026-05-08 02:20 27.00129 -79.53009 27792 ft 479 kts 203°
2026-05-08 02:20 26.96944 -79.54169 26649 ft 481 kts 202°
2026-05-08 02:20 26.93789 -79.55317 25620 ft 482 kts 202°
2026-05-08 02:20 26.90614 -79.56470 24768 ft 478 kts 202°
2026-05-08 02:21 26.87450 -79.57618 23937 ft 474 kts 202°
2026-05-08 02:21 26.84312 -79.58750 22991 ft 471 kts 202°
2026-05-08 02:21 26.81211 -79.59867 22118 ft 466 kts 202°
2026-05-08 02:21 26.78134 -79.60974 21285 ft 460 kts 202°
2026-05-08 02:22 26.75100 -79.62067 20492 ft 455 kts 201°
2026-05-08 02:22 26.72153 -79.63127 20151 ft 440 kts 201°
2026-05-08 02:22 26.69294 -79.64155 19940 ft 423 kts 201°
2026-05-08 02:22 26.66539 -79.65146 19755 ft 407 kts 201°
2026-05-08 02:23 26.63882 -79.66101 19580 ft 393 kts 202°
2026-05-08 02:23 26.61332 -79.67015 19230 ft 386 kts 201°
2026-05-08 02:23 26.58776 -79.67915 18735 ft 384 kts 201°
2026-05-08 02:23 26.56223 -79.68807 18198 ft 383 kts 200°
2026-05-08 02:24 26.53682 -79.69694 17635 ft 381 kts 200°
2026-05-08 02:24 26.51068 -79.70607 17085 ft 378 kts 200°
2026-05-08 02:24 26.48569 -79.71498 16553 ft 374 kts 203°
2026-05-08 02:25 26.46247 -79.72753 16048 ft 368 kts 214°
2026-05-08 02:25 26.44213 -79.74402 15799 ft 355 kts 223°
2026-05-08 02:25 26.42509 -79.76342 15556 ft 346 kts 230°
2026-05-08 02:25 26.40915 -79.78326 15329 ft 342 kts 230°
2026-05-08 02:26 26.39306 -79.80319 15111 ft 347 kts 230°
2026-05-08 02:26 26.37758 -79.82362 14883 ft 350 kts 235°
2026-05-08 02:26 26.36369 -79.84568 14647 ft 342 kts 237°
2026-05-08 02:26 26.35061 -79.86738 14415 ft 333 kts 237°
2026-05-08 02:27 26.33764 -79.88860 13905 ft 334 kts 237°
2026-05-08 02:27 26.32428 -79.91016 13161 ft 341 kts 236°
2026-05-08 02:27 26.31061 -79.93204 12431 ft 347 kts 236°
2026-05-08 02:27 26.29673 -79.95420 11712 ft 351 kts 236°
2026-05-08 02:28 26.28287 -79.97629 11462 ft 341 kts 235°
2026-05-08 02:28 26.26902 -79.99722 11229 ft 331 kts 233°
2026-05-08 02:28 26.25505 -80.01729 10990 ft 323 kts 232°
2026-05-08 02:28 26.24134 -80.03675 10747 ft 315 kts 232°
2026-05-08 02:29 26.22819 -80.05543 10504 ft 305 kts 232°
2026-05-08 02:29 26.21541 -80.07366 10284 ft 291 kts 232°
2026-05-08 02:29 26.20339 -80.09085 10222 ft 272 kts 232°
2026-05-08 02:29 26.19211 -80.10705 10008 ft 261 kts 232°
2026-05-08 02:30 26.18091 -80.12313 9492 ft 263 kts 232°
2026-05-08 02:30 26.16969 -80.13926 9003 ft 263 kts 232°
2026-05-08 02:30 26.15850 -80.15535 8526 ft 263 kts 232°
2026-05-08 02:30 26.14729 -80.17148 8050 ft 263 kts 232°
2026-05-08 02:31 26.13607 -80.18761 7579 ft 263 kts 232°
2026-05-08 02:31 26.12487 -80.20371 7118 ft 263 kts 232°
2026-05-08 02:31 26.11362 -80.21989 6657 ft 263 kts 232°
2026-05-08 02:32 26.10122 -80.23772 6138 ft 265 kts 232°
2026-05-08 02:32 26.08986 -80.25403 5652 ft 267 kts 233°
2026-05-08 02:32 26.07852 -80.27032 5170 ft 266 kts 233°
2026-05-08 02:32 26.06719 -80.28659 4686 ft 265 kts 233°
2026-05-08 02:33 26.05593 -80.30277 4215 ft 265 kts 233°
2026-05-08 02:33 26.04480 -80.31874 4053 ft 261 kts 233°
2026-05-08 02:33 26.03369 -80.33469 4005 ft 261 kts 233°
2026-05-08 02:33 26.02259 -80.35061 3994 ft 259 kts 233°
2026-05-08 02:34 26.01155 -80.36644 3992 ft 259 kts 233°
2026-05-08 02:34 26.00423 -80.37694 3991 ft 259 kts 233°
2026-05-08 02:34 25.99314 -80.39282 3987 ft 259 kts 233°
2026-05-08 02:34 25.98212 -80.40863 3998 ft 258 kts 233°
2026-05-08 02:35 25.97111 -80.42440 3998 ft 258 kts 233°
2026-05-08 02:35 25.95652 -80.44528 3990 ft 258 kts 233°
2026-05-08 02:35 25.94908 -80.45592 3996 ft 258 kts 233°
2026-05-08 02:35 25.93818 -80.47150 3997 ft 258 kts 232°
2026-05-08 02:36 25.92423 -80.48415 3985 ft 259 kts 200°
2026-05-08 02:36 25.90658 -80.48619 3677 ft 267 kts 168°
2026-05-08 02:36 25.89061 -80.47656 3411 ft 263 kts 134°
2026-05-08 02:36 25.87976 -80.46030 3095 ft 261 kts 122°
2026-05-08 02:37 25.87068 -80.44290 2772 ft 258 kts 119°
2026-05-08 02:37 25.86207 -80.42564 2435 ft 251 kts 120°
2026-05-08 02:37 25.85362 -80.40895 2115 ft 244 kts 120°
2026-05-08 02:37 25.84539 -80.39282 1795 ft 235 kts 120°
2026-05-08 02:38 25.83769 -80.37771 1495 ft 218 kts 120°
2026-05-08 02:38 25.83056 -80.36372 1254 ft 196 kts 121°
2026-05-08 02:38 25.82425 -80.35131 986 ft 174 kts 121°
2026-05-08 02:38 25.81862 -80.34026 780 ft 154 kts 121°
2026-05-08 02:39 25.81362 -80.33046 579 ft 142 kts 121°
2026-05-08 02:39 25.80851 -80.32086 326 ft 148 kts 121°
2026-05-08 02:39 25.80341 -80.31072 183 ft 150 kts 118°
2026-05-08 02:39 25.79844 -80.30073 40 ft 150 kts 119°
2026-05-08 02:40 25.79367 -80.29128 14 ft 120 kts 119°
2026-05-08 02:40 25.79055 -80.28516 15 ft 38 kts 119°
2026-05-08 02:40 25.78975 -80.28289 19 ft 8 kts 99°
2026-05-08 02:40 25.78966 -80.28231 19 ft 7 kts 99°
2026-05-08 02:41 25.78964 -80.28174 19 ft 8 kts 88°
2026-05-08 02:41 25.78972 -80.28103 22 ft 10 kts 71°
2026-05-08 02:41 25.78985 -80.28032 23 ft 9 kts 92°
2026-05-08 02:41 25.78963 -80.27966 21 ft 9 kts 119°
2026-05-08 02:42 25.78932 -80.27905 21 ft 9 kts 119°
2026-05-08 02:42 25.78899 -80.27841 19 ft 11 kts 119°
2026-05-08 02:42 25.78914 -80.27773 18 ft 11 kts 15°
2026-05-08 02:42 25.78989 -80.27793 19 ft 12 kts 344°
2026-05-08 02:43 25.79076 -80.27806 21 ft 14 kts
2026-05-08 02:43 25.79176 -80.27779 21 ft 16 kts 11°
2026-05-08 02:43 25.79211 -80.27770 20 ft 7 kts 17°
2026-05-08 02:43 25.79223 -80.27742 20 ft 1 kts 90°
2026-05-08 02:44 25.79223 -80.27728 19 ft 4 kts 90°
2026-05-08 02:44 25.79223 -80.27708 19 ft 0 kts 91°